www.pogodaiklimat.ru

Погода и климат >> Архив погоды >> Бахрейн >> Бахрейн


АРХИВ ПОГОДЫ в Бахрейне

Время (UTC), дата Ветер
(напр.,м/с)
 
Видим.   Явления Облачность Т
(С)
Тd
(С)
f
(%)
Тe
(С)
Тes
(С)
Комфортность P
(гПа)
Po
(гПа)
Тmin
(С)
Tmax
(С)
R
(мм)
R24
(мм)
S
(см)
03 13.06 С 7 20 км ясно +34.7 +23.7 53 +46 +46 опасность
перегрева
1000.4 1000.2
06 13.06 С 11 9000 м пыльный позёмок ясно +37.6 +18.5 33 +42 +42 опасность
перегрева
1001.3 1001.1 +34.2
09 13.06 СЗ 10 16 км ясно +38.1 +20.4 36 +44 +45 опасность
перегрева
1000.9 1000.7
12 13.06 СЗ 10 14 км ясно +39.2 +16.7 27 +42 +42 опасность
перегрева
999.6 999.4
15 13.06 СЗ 7 14 км ясно +35.4 +20.5 42 +42 +42 опасность
перегрева
1000.1 999.9
18 13.06 СЗ 7 14 км ясно +34.6 +22.6 50 +44 +44 опасность
перегрева
1000.8 1000.6 +39.8
21 13.06 СЗ 5 14 км ясно +34.2 +22.2 50 +43 +43 опасность
перегрева
999.7 999.5
00 14.06 СЗ 6 12 км ясно +35.5 +16.7 33 +38 +38 очень
душно
998.7 998.5
03 14.06 СЗ 6 12 км ясно +34.4 +22.1 49 +43 +44 опасность
перегрева
999.9 999.7
06 14.06 СЗ 7 12 км 1/0
[Ci fib]
+36.3 +23.1 47 +46 +50 опасность
перегрева
1001.0 1000.8 +33.9
09 14.06 СЗ 6 12 км ясно +37.9 +21.1 38 +45 +53 опасность
перегрева
1000.6 1000.4
12 14.06 СЗ 7 12 км ясно +37.8 +22.6 42 +47 +50 опасность
перегрева
999.3 999.1
15 14.06 СЗ 7 14 км ясно +35.9 +21.3 43 +43 +44 опасность
перегрева
999.1 998.9
18 14.06 СЗ 6 14 км ясно +35.3 +23.2 50 +46 +46 опасность
перегрева
999.8 999.6 +38.5
21 14.06 СЗ 6 14 км ясно +35.9 +20.5 41 +42 +42 опасность
перегрева
998.5 998.3
00 15.06 СЗ 5 14 км ясно +33.9 +24.1 57 +46 +46 опасность
перегрева
998.1 997.9
03 15.06 СЗ 6 18 км ясно +35.0 +20.9 44 +42 +43 опасность
перегрева
999.1 998.9
06 15.06 СЗ 7 16 км ясно +37.6 +20.4 37 +44 +47 опасность
перегрева
1000.3 1000.1 +33.4
09 15.06 СЗ 6 16 км ясно +38.6 +22.6 40 +47 +57 опасность
перегрева
999.9 999.7
12 15.06 СЗ 7 16 км ясно +38.5 +22.0 39 +47 +49 опасность
перегрева
999.2 999.0
15 15.06 СЗ 5 14 км ясно +37.7 +20.5 37 +44 +44 опасность
перегрева
998.9 998.7
18 15.06 З 4 14 км ясно +36.9 +18.8 35 +41 +41 опасность
перегрева
999.7 999.5 +39.7
21 15.06 СЗ 5 14 км ясно +36.1 +18.6 36 +40 +40 очень
душно
998.7 998.5
00 16.06 СЗ 2 14 км ясно +32.6 +24.8 64 +46 +46 опасность
перегрева
998.2 998.0
03 16.06 СЗ 5 14 км 4/0
[Ci fib]
+33.1 +26.8 70 +51 +52 опасность
перегрева
999.2 999.0
06 16.06 СЗ 5 14 км 5/0
[Ci fib]
+38.2 +20.0 35 +44 +50 опасность
перегрева
1000.6 1000.4 +31.8
09 16.06 СЗ 7 12 км 4/0
[Ci fib]
+40.1 +16.8 26 +42 +48 опасность
перегрева
1000.6 1000.4
12 16.06 С 7 12 км 5/0
[Ci fib]
+40.1 +17.4 27 +43 +46 опасность
перегрева
999.5 999.3
15 16.06 С 4 12 км 8/0
[Ci sp]
+37.4 +20.2 37 +43 +43 опасность
перегрева
999.3 999.1
18 16.06 СЗ 4 10 км мгла 8/0
[Cs]
+35.3 +23.2 50 +46 +46 опасность
перегрева
1000.2 1000.0 +40.7
21 16.06 СЗ 1 12 км 4/0
[Ci sp]
+34.6 +23.2 52 +45 +45 опасность
перегрева
999.6 999.4
00 17.06 З 2 12 км 6/0
[Cs]
+34.8 +18.7 39 +40 +40 очень
душно
999.0 998.8
03 17.06 З 4 14 км 6/0
[Ci fib]
+36.6 +15.6 29 +38 +39 очень
душно
1000.0 999.8
06 17.06 СЗ 11 14 км 4/0
[Ci fib]
+38.3 +17.6 30 +41 +42 опасность
перегрева
1000.8 1000.6 +33.4
09 17.06 СЗ 9 12 км 5/0
[Ci fib]
+38.9 +21.5 37 +46 +49 опасность
перегрева
1001.2 1001.0
12 17.06 СЗ 8 12 км 8/0
[Ci fib]
+39.0 +23.3 41 +49 +50 опасность
перегрева
999.8 999.6
15 17.06 СЗ 8 12 км 8/0
[Ci fib]
+36.4 +25.2 53 +50 +50 опасность
перегрева
999.7 999.5
18 17.06 СЗ 7 12 км 5/0
[Ci fib]
+36.0 +24.5 52 +49 +49 опасность
перегрева
1000.7 1000.5 +40.4
21 17.06 СЗ 7 12 км 4/0
[Ci fib]
+36.0 +23.6 49 +47 +47 опасность
перегрева
1000.2 1000.0
00 18.06 СЗ 7 12 км 3/0
[Ci fib]
+35.8 +22.0 45 +44 +44 опасность
перегрева
999.6 999.4
03 18.06 С 8 16 км ясно +35.5 +23.1 49 +46 +46 опасность
перегрева
1000.6 1000.4
06 18.06 С 8 16 км н/о +37.6 +22.5 42 +46 +46 опасность
перегрева
1001.4 1001.2 +34.5
09 18.06 С 8 16 км ясно +39.1 +21.3 36 +46 +50 опасность
перегрева
1001.2 1001.0
12 18.06 СЗ 9 16 км ясно +38.8 +21.0 36 +45 +46 опасность
перегрева
1000.6 1000.4
15 18.06 СЗ 9 16 км ясно +37.3 +18.7 34 +42 +42 опасность
перегрева
1000.6 1000.4
18 18.06 СЗ 5 16 км ясно +35.6 +21.3 44 +43 +43 опасность
перегрева
1000.9 1000.7 +40.3
21 18.06 СЗ 7 14 км ясно +34.9 +22.5 49 +44 +44 опасность
перегрева
999.9 999.7
00 19.06 СЗ 8 14 км ясно +34.4 +21.0 46 +42 +42 опасность
перегрева
998.6 998.4
03 19.06 СЗ 8 14 км 1/0
[Ci fib]
+34.3 +23.9 55 +46 +46 опасность
перегрева
999.0 998.8
06 19.06 СЗ 11 16 км ясно +36.4 +23.2 47 +47 +47 опасность
перегрева
1000.2 1000.0 +33.7
09 19.06 СЗ 11 16 км ясно +37.6 +22.1 41 +46 +46 опасность
перегрева
1000.3 1000.1
12 19.06 СЗ 12 12 км ясно +37.7 +19.1 34 +42 +42 опасность
перегрева
999.3 999.1
15 19.06 СЗ 10 12 км ясно +36.4 +17.9 34 +40 +40 очень
душно
998.7 998.5
18 19.06 СЗ 7 14 км ясно +34.4 +22.1 49 +43 +43 опасность
перегрева
999.6 999.4 +38.6
21 19.06 СЗ 8 14 км ясно +33.6 +23.5 56 +45 +45 опасность
перегрева
999.7 999.5

 

Местоположение метеостанции Бахрейн (Бахрейн): широта 26.27 долгота 50.65 высота над уровнем моря 2 м.

В архиве по умолчанию представлена погода в Бахрейне за последнюю неделю. Архивные данные за месяц целиком и за предыдущие месяцы, начиная с января 2011 года, Вы можете получить, выбрав интересующий диапазон дат из раскрывающегося списка и нажав кнопку "Ввод!".


*Определитесь, кто Вы:
робот инопланетянин человек

Внимание! Время в таблицах - всемирное. Для получения местного времени необходимо прибавить поправку, которая равна 4 ч.

Смотрите также архив погоды в соседних городах и на ближайших метеорологических станциях:

Погода в Дахране (Саудовская Аравия) (48 км)
Погода в Эд-Даммаме (Саудовская Аравия) (85 км)
Погода в Духане (Катар) (97 км)
Погода в Дохе (Катар) (146 км)
Погода в Аэропорту Хамад (Катар) (147 км)
Погода в Эль-Хуфуфе (Саудовская Аравия) (159 км)
Погода в Доха порту (Катар) (166 км)
Погода в Абу Самба (Катар) (170 км)
Погода в Бендер-Дейере (Иран) (215 км)
Погода в Бушире (Иран) (299 км)

Пояснения к столбцам:

Ветер - указаны скорость ветра в м/с - средняя за 10 мин, порывы в срок и между сроками (в фигурных скобках) и направление, откуда дует ветер: С - северный, СВ - северо-восточный, В - восточный, ЮВ - юго-восточный, Ю - южный, ЮЗ - юго-западный, З - западный, СЗ - северо-западный.
Видимость - горизонтальная дальность видимости в метрах или километрах. При видимости от 1 до 10 км при отсутствии осадков обычно наблюдается дымка, при ухудшении видимости до 1 км и менее - туман. В сухую погоду видимость может ухудшаться дымом, пылью или мглою.
Явления - указаны атмосферные явления, наблюдавшиеся в срок или в последний час перед сроком; фигурными скобками обозначены явления, наблюдавшиеся между сроками (за 1-3 часа до срока); квадратными скобками обозначены град или гололедные отложения с указанием их диаметра в мм.
Облачность - указаны через наклонную черту общая и нижняя облачность в баллах и высота нижней границы облаков в метрах; квадратными скобками обозначены формы облаков: Ci - перистые, Cs - перисто-слоистые, Cc - перисто-кучевые, Ac - высококучевые, As - высокослоистые, Sc - слоисто-кучевые, Ns - слоисто-дождевые, Cu - кучевые, Cb - кучево-дождевые. Подробнее классификацию облаков см. в Атласе облаков (PDF).
T - Температура воздуха - температура, измеренная на высоте 2 м над землей.
Td - Температура точки росы - температура, при понижении до которой содержащийся в воздухе водяной пар достигнет насыщения.
f - Относительная влажность воздуха - влажноcть воздуха, измеренная на высоте 2 м над землей.
Te - Эффективная температура - температура, которую ощущает одетый по сезону человек в тени. Характеристика душности погоды. При расчете учитывается влияние влажности воздуха и скорости ветра на теплоощущения человека.
Tes - Эффективная температура на солнце - температура, которую ощущает человек, с поправкой на солнечный нагрев. Характеристика знойности погоды. Зависит от высоты солнца над горизонтом, облачности и скорости ветра. Ночью, в пасмурную погоду, а также при ветре 12 м/с и более поправка равна нулю.
P - Атмосферное давление - приведенное к уровню моря атмосферное давление.
Po - Атмосферное давление - измеренное на уровне метеостанции атмосферное давление.
Tmin - Минимальная температура - минимум температуры воздуха на высоте 2 м над землей.
Tmax - Максимальная температура - максимум температуры воздуха на высоте 2 м над землей.
R - Количество осадков - Количество выпавших осадков за период времени, мм. При наведении курсора мыши на число - период времени, за который выпало указанное количество осадков.
R24 - Количество осадков - Количество выпавших осадков за 24 часа, мм.
S - Снежный покров - Высота снежного покрова, см. При наведении курсора мыши на число - состояние снежного покрова и степень покрытия местности в баллах.